Hagerstown, MD

11:03 AM EST on November 18, 2019 (GMT -0500)
Hagerstown Regional-Henson

Weather History for KHGR - October, 2019

Change the Weather History Date:

Wednesday, October 16, 2019

  Actual Average Record
Temperature  
Mean Temperature 55 °F 55 °F  
Max Temperature 59 °F 65 °F 78 °F (1996)
Min Temperature 50 °F 44 °F 34 °F (2006)
Degree Days  
Heating Degree Days 10 11  
Month to date heating degree days 81 135  
Since 1 July heating degree days 82 209  
Cooling Degree Days 0 0  
Month to date cooling degree days 35 9  
Year to date cooling degree days 1473 968  
Growing Degree Days 4 (Base 50)    
Moisture  
Dew Point 50 °F    
Average Humidity 76    
Maximum Humidity 93    
Minimum Humidity 59    
Precipitation  
Precipitation 0.69 in 0.09 in 1.14 in (2002)
Month to date precipitation 0.94 1.69  
Year to date precipitation 29.79 31.99  
Sea Level Pressure  
Sea Level Pressure 29.72 in    
Wind  
Wind Speed 12 mph (SSW)    
Max Wind Speed 33 mph    
Max Gust Speed 40 mph    
Visibility 7 miles    
Events Rain    
T = Trace of Precipitation, MM = Missing Value Source: NWS Daily Summary

Daily Weather History Graph

Daily Weather History Graph

Search for Another Location

Airport or City:

Astronomy

Oct. 16, 2019 Rise Set
Actual Time 7:21 AM EDT 6:30 PM EDT
Civil Twilight 6:54 AM EDT 6:57 PM EDT
Nautical Twilight 6:23 AM EDT 7:28 PM EDT
Astronomical Twilight 5:52 AM EDT 8:00 PM EDT
Moon 8:23 PM EDT (10/16) 9:50 AM EDT (10/16)
Length of Visible Light 12h 02m
Length of Day
11h 08m
Waning Gibbous, 93% of the Moon is Illuminated
Oct 16
Waning Gibbous
Oct 21
Last Quarter
Oct 27
New
Nov 4
First Quarter
Nov 12
Full

Hourly Weather History & Observations

Time (EDT) Temp. Dew Point Humidity Pressure Visibility Wind Dir Wind Speed Gust Speed Precip Events Conditions
12:53 AM 57.0 °F 45.0 °F 64% 29.99 in 10.0 mi SSE 13.8 mph - N/A   Clear
1:53 AM 57.0 °F 46.9 °F 69% 29.97 in 10.0 mi South 13.8 mph - N/A   Clear
2:53 AM 55.9 °F 48.9 °F 77% 29.96 in 10.0 mi SSE 6.9 mph - N/A   Clear
3:53 AM 55.9 °F 50.0 °F 80% 29.93 in 10.0 mi SE 6.9 mph - N/A   Clear
4:53 AM 55.9 °F 52.0 °F 87% 29.91 in 9.0 mi SSE 6.9 mph - N/A   Partly Cloudy
5:13 AM 55.9 °F 52.0 °F 87% 29.87 in 9.0 mi SSE 10.4 mph - N/A   Mostly Cloudy
5:53 AM 57.0 °F 52.0 °F 83% 29.88 in 10.0 mi SSE 6.9 mph - N/A   Partly Cloudy
6:22 AM 57.0 °F 53.1 °F 87% 29.85 in 10.0 mi SSE 5.8 mph - N/A   Mostly Cloudy
6:46 AM 57.0 °F 53.1 °F 87% 29.85 in 9.0 mi SSE 5.8 mph - N/A   Mostly Cloudy
6:53 AM 57.0 °F 53.1 °F 87% 29.86 in 9.0 mi ESE 3.5 mph - N/A   Mostly Cloudy
7:24 AM 57.0 °F 53.1 °F 87% 29.84 in 8.0 mi South 3.5 mph - N/A   Mostly Cloudy
7:53 AM 57.0 °F 53.1 °F 87% 29.84 in 8.0 mi SE 5.8 mph - N/A   Overcast
8:53 AM 57.9 °F 52.0 °F 81% 29.79 in 9.0 mi SE 13.8 mph - N/A   Overcast
9:53 AM 57.9 °F 52.0 °F 81% 29.74 in 9.0 mi SE 12.7 mph 19.6 mph N/A   Mostly Cloudy
10:53 AM 57.9 °F 54.0 °F 87% 29.75 in 2.5 mi SW 6.9 mph - 0.02 in Rain Light Rain
11:00 AM 57.9 °F 54.0 °F 87% 29.72 in 2.5 mi SSW 8.1 mph - 0.01 in Rain Light Rain
11:28 AM 57.0 °F 55.0 °F 93% 29.70 in 2.5 mi SSE 4.6 mph - 0.07 in Rain Light Rain
11:53 AM 57.0 °F 54.0 °F 89% 29.71 in 2.5 mi SSE 5.8 mph - 0.15 in Rain Rain
11:55 AM 57.0 °F 54.0 °F 89% 29.68 in 1.8 mi SSE 6.9 mph - 0.00 in Rain Rain
12:00 PM 57.0 °F 54.0 °F 89% 29.67 in 1.8 mi SE 6.9 mph - 0.02 in Rain Rain
12:11 PM 57.0 °F 54.0 °F 89% 29.67 in 2.0 mi SSE 8.1 mph - 0.05 in Rain Rain
12:25 PM 57.0 °F 54.0 °F 89% 29.65 in 2.0 mi SSE 10.4 mph - 0.09 in Rain Rain
12:53 PM 55.9 °F 54.0 °F 93% 29.69 in 1.0 mi WSW 9.2 mph - 0.19 in Rain Rain
1:20 PM 55.9 °F 53.1 °F 90% 29.64 in 2.0 mi SSW 9.2 mph - 0.11 in Rain Light Rain
1:53 PM 55.9 °F 53.1 °F 90% 29.64 in 2.0 mi SSW 5.8 mph - 0.21 in Rain Rain
2:53 PM 55.0 °F 53.1 °F 93% 29.62 in 2.0 mi West 9.2 mph - 0.11 in Rain Rain
2:57 PM 55.0 °F 52.0 °F 89% 29.59 in 2.0 mi West 5.8 mph - 0.00 in Rain Light Rain
3:01 PM 55.0 °F 53.1 °F 93% 29.58 in 3.0 mi West 5.8 mph - 0.00 in Rain Light Rain
3:53 PM 55.0 °F 52.0 °F 89% 29.59 in 7.0 mi West 3.5 mph - 0.01 in Rain Light Rain
4:40 PM 55.9 °F 51.1 °F 84% 29.57 in 10.0 mi WNW 9.2 mph - 0.00 in   Overcast
4:53 PM 55.9 °F 52.0 °F 87% 29.60 in 10.0 mi NW 10.4 mph - 0.00 in   Overcast
5:07 PM 55.9 °F 50.0 °F 80% 29.57 in 10.0 mi WNW 20.7 mph 26.5 mph N/A   Mostly Cloudy
5:53 PM 54.0 °F 43.0 °F 66% 29.60 in 10.0 mi West 19.6 mph - N/A   Overcast
6:53 PM 53.1 °F 41.0 °F 64% 29.60 in 10.0 mi WNW 19.6 mph 28.8 mph N/A   Scattered Clouds
7:53 PM 53.1 °F 39.0 °F 59% 29.62 in 10.0 mi WNW 23.0 mph 31.1 mph N/A   Overcast
8:53 PM 51.1 °F 37.0 °F 59% 29.61 in 10.0 mi West 25.3 mph 31.1 mph N/A   Partly Cloudy
9:53 PM 51.1 °F 37.0 °F 59% 29.62 in 10.0 mi WNW 21.9 mph 33.4 mph N/A   Mostly Cloudy
10:53 PM 51.1 °F 37.0 °F 59% 29.60 in 10.0 mi WNW 18.4 mph - N/A   Mostly Cloudy
11:53 PM 51.1 °F 37.9 °F 61% 29.59 in 10.0 mi West 17.3 mph 26.5 mph N/A   Overcast